Theta_e
349 350 351 352 350 346 349 350 347 345 341 346 346 344 346 347 343 343 346 345 347 352 353 353 352 353 352 350 348 347 350 349 349 348 348 347 347 346 347 347 346 347 348
349 348 350 351 352 351 345 346 342 344 345 342 346 345 345 343 346 350 346 350 351 352 353 353 353 353 353 350 349 348 348 348 350 349 349 349 348 347 348 348 348 348 347
349 348 348 350 351 351 351 344 345 345 345 339 341 345 343 342 351 352 352 353 351 353 353 353 353 352 349 347 348 351 350 350 350 350 347 342 344 346 348 349 348 347 343
349 348 348 350 351 350 350 349 347 349 349 340 338 341 339 343 348 351 352 352 353 352 353 352 351 349 349 349 348 349 349 350 346 348 343 341 350 349 348 348 347 344 343
348 347 347 350 347 348 349 347 348 349 349 347 346 345 344 346 347 352 351 351 351 351 352 351 349 350 350 351 350 347 350 347 344 345 342 343 347 349 345 347 343 343 344
348 346 345 347 352 351 346 347 351 349 349 348 344 349 343 347 353 353 352 352 351 350 347 351 351 350 349 350 347 348 347 347 344 342 344 334 338 341 346 347 342 338 345
346 347 347 347 344 343 346 350 350 350 349 347 343 345 346 345 350 350 352 352 351 350 348 350 351 350 349 346 344 345 348 348 348 338 336 340 343 341 336 332 340 333 335
344 346 347 349 348 343 348 350 349 349 351 346 343 338 341 341 347 345 345 345 346 350 349 349 350 350 344 343 345 346 347 344 343 341 335 340 345 347 349 341 335 335 339
342 346 346 346 351 339 340 345 343 342 335 340 339 338 337 338 341 344 345 344 346 345 349 348 347 345 342 342 344 347 347 345 342 344 338 340 346 342 345 342 333 340 343
345 345 344 344 347 341 338 335 336 333 344 335 341 348 337 347 346 343 344 343 341 345 346 346 343 342 341 340 342 345 347 348 345 345 344 339 340 341 345 336 334 329 339
347 346 346 345 345 341 340 339 342 344 349 350 349 348 346 346 344 347 343 342 341 345 346 346 346 340 338 338 339 342 345 346 347 346 345 344 334 338 347 341 336 336 334
349 349 348 350 349 351 348 349 348 353 352 351 350 351 347 346 346 344 341 344 343 344 344 346 347 342 338 334 336 341 342 343 345 348 347 347 339 335 343 341 337 338 345
349 350 350 352 350 351 350 353 349 352 352 352 349 351 347 343 344 346 344 344 348 349 345 345 344 343 336 335 335 338 340 340 340 342 345 347 347 334 337 338 335 334 335
348 346 347 350 351 349 347 349 348 348 350 349 347 348 350 347 346 346 342 344 345 347 347 344 344 341 334 332 335 336 339 346 344 344 345 346 347 339 334 337 342 338 335
347 346 347 348 348 348 347 345 346 346 348 347 347 349 349 349 346 343 344 345 347 347 346 343 344 342 339 334 333 338 345 343 344 344 345 346 346 345 335 335 342 345 339
345 345 346 347 348 347 346 345 348 347 347 348 348 347 348 347 345 343 348 349 348 350 347 344 343 344 344 343 339 343 342 343 343 344 345 345 346 345 336 337 341 342 340
343 342 344 345 346 347 346 343 344 346 344 345 345 343 344 346 344 345 349 349 348 349 347 345 344 345 347 347 346 345 344 343 343 343 341 342 344 345 345 338 343 344 344
344 344 344 344 343 343 341 341 341 340 341 342 343 343 341 345 347 347 348 349 348 349 347 348 348 348 348 347 344 344 345 344 345 344 342 341 340 342 347 346 344 344 344
342 343 343 342 341 340 340 341 344 344 341 341 342 342 344 345 346 347 348 349 348 348 349 348 347 348 347 347 344 344 345 345 344 342 343 343 342 340 340 343 345 346 346
341 339 339 340 340 340 341 344 346 348 348 346 344 343 344 345 346 347 348 347 348 348 348 347 347 346 345 345 345 344 348 346 345 344 343 341 341 341 341 340 341 345 346
345 341 339 340 341 342 343 345 346 347 348 349 349 348 349 349 349 349 349 349 347 348 346 346 346 345 343 345 346 344 344 346 346 345 344 343 343 343 342 342 340 341 341
347 346 346 346 346 346 342 343 347 347 347 349 350 350 350 349 348 348 348 349 350 348 347 346 347 345 344 344 346 345 347 345 344 344 343 342 342 342 342 343 342 341 341
346 347 347 347 348 349 349 348 349 349 349 351 352 352 350 348 348 349 349 349 349 350 348 347 347 348 345 345 347 346 346 347 341 344 344 344 344 344 344 344 345 345 344
342 345 346 347 347 348 349 350 350 349 348 348 351 350 348 348 348 348 349 349 349 350 350 349 348 347 347 347 347 347 346 344 347 348 344 345 346 344 344 343 344 344 344
342 343 344 346 348 348 349 350 351 351 349 348 350 351 351 351 350 350 350 349 349 349 349 349 348 349 348 347 347 346 346 345 344 344 348 345 345 346 345 344 343 344 346
343 343 343 345 348 350 351 351 352 352 352 352 351 351 352 353 353 353 353 353 352 352 351 350 350 349 348 348 347 347 346 346 346 346 347 347 347 347 346 346 347 345 346
Wind_Speed
15 19 21 22 24 26 25 28 31 33 32 30 30 29 26 25 24 21 19 18 18 18 16 16 17 17 20 20 19 17 16 15 15 14 14 13 13 13 13 13 14 14 14
20 19 23 23 24 25 28 29 32 31 31 29 27 27 24 24 20 17 18 18 18 17 16 16 17 16 18 19 17 17 16 16 14 12 13 13 13 12 11 12 14 14 13
19 19 23 25 26 25 26 29 28 30 29 30 27 24 22 21 21 19 18 16 17 16 15 15 16 15 15 18 19 16 15 14 13 11 12 11 12 13 11 11 12 11 11
20 21 22 27 27 25 25 28 30 28 27 28 28 25 23 19 21 20 18 16 15 16 15 14 14 14 15 17 18 16 14 13 12 11 10 12 11 11 11 10 10 10 11
22 23 23 26 26 25 25 26 27 26 24 23 22 22 22 19 19 18 17 16 15 15 14 12 12 13 14 15 16 17 13 11 11 10 8 10 11 11 11 8 8 10 10
23 22 23 25 25 24 25 26 25 25 24 22 20 19 19 17 14 14 14 13 14 13 13 11 13 13 13 13 13 11 8 7 6 7 7 9 9 9 10 10 7 10 10
21 19 23 25 25 24 23 24 24 24 23 22 21 18 17 14 11 12 12 10 12 12 12 11 10 10 10 10 8 6 2 3 4 6 7 7 8 7 7 7 7 7 9
21 20 23 24 24 25 23 22 22 22 21 20 19 18 13 10 9 8 8 9 10 10 11 11 11 10 9 9 6 4 2 3 7 6 7 6 5 6 6 5 7 7 7
21 20 20 23 23 24 22 19 18 19 20 19 18 16 13 9 8 7 6 7 6 8 9 9 9 9 9 7 6 4 1 1 6 6 6 6 6 5 5 5 6 6 7
20 20 20 22 24 26 24 23 18 13 18 18 16 14 13 9 7 6 6 5 5 6 6 6 7 9 9 6 5 3 1 1 6 5 5 5 7 6 6 5 5 6 8
18 21 23 23 24 24 26 23 20 17 16 15 15 13 10 9 7 6 5 4 3 4 3 4 4 7 9 8 6 2 3 1 3 7 8 7 7 7 7 7 7 7 7
18 18 20 21 23 23 23 21 21 18 16 15 13 13 12 9 9 7 6 6 4 4 3 3 4 6 8 9 8 7 6 5 6 7 11 11 10 10 9 9 9 9 9
21 21 21 19 20 21 22 20 18 18 17 17 15 15 13 12 11 11 9 8 8 6 6 5 6 7 8 9 9 9 8 7 8 10 13 12 13 13 11 10 10 11 11
24 24 23 20 20 21 21 22 20 19 17 17 17 16 15 14 13 13 12 10 10 9 9 8 8 8 8 10 10 10 8 7 11 12 14 12 12 14 13 12 12 12 13
25 26 24 22 21 21 20 20 20 19 18 17 17 16 15 15 14 15 14 13 12 12 10 10 11 9 9 10 11 10 9 8 9 10 10 10 13 13 13 14 13 14 14
27 29 26 25 24 22 22 21 20 20 19 18 17 17 16 16 16 17 16 16 16 16 12 12 12 10 8 9 10 10 10 9 8 7 8 8 11 14 15 16 13 15 14
32 31 30 29 26 25 23 22 22 21 20 18 17 17 17 17 17 17 18 15 18 16 13 12 13 12 13 11 13 13 13 13 11 12 11 13 14 14 15 18 17 15 17
28 32 31 31 29 27 26 23 22 21 20 20 19 18 18 19 19 19 20 20 18 17 15 16 16 16 16 16 15 15 16 16 14 12 15 14 16 18 16 18 20 19 18
30 30 31 30 32 30 27 26 23 22 23 22 21 20 20 20 19 21 22 22 19 19 19 19 19 17 18 18 18 19 19 18 18 19 18 18 17 19 19 18 20 23 21
28 29 30 30 30 29 27 25 23 22 23 23 22 22 22 22 23 23 24 24 22 20 20 21 21 22 21 21 21 22 20 20 20 22 22 21 21 20 22 21 22 23 24
27 28 29 30 30 28 27 25 25 27 26 25 24 22 22 22 22 24 27 27 26 24 23 21 22 23 24 22 19 21 23 23 26 27 25 24 23 23 23 24 24 25 26
31 30 30 29 29 27 28 28 24 20 25 28 27 26 24 21 22 22 23 26 26 28 27 25 24 23 23 22 12 6 3 13 22 26 26 26 26 25 25 23 25 26 26
31 32 30 30 30 28 28 28 25 24 21 22 22 26 27 26 24 22 22 23 25 28 30 29 27 27 24 25 22 12 2 4 4 6 5 10 12 15 19 22 23 25 26
31 30 31 29 29 29 28 29 31 31 24 30 28 25 24 24 26 25 25 25 26 28 30 31 33 32 28 23 21 23 25 17 3 5 8 7 9 17 23 24 19 16 20
26 27 28 28 27 29 28 28 29 29 31 31 28 25 25 23 22 23 24 26 28 31 32 33 33 35 36 30 28 21 21 29 27 11 10 8 16 21 25 27 24 24 22
24 24 26 28 26 24 23 23 25 28 29 29 30 28 29 26 25 25 26 29 30 32 32 33 33 33 35 37 32 33 25 14 9 13 9 14 14 21 24 27 25 23 23
Wind_Direction
145 141 131 124 122 122 126 128 128 124 125 117 116 121 118 116 117 118 108 105 104 108 107 104 102 106 106 103 101 107 111 111 110 109 105 106 107 102 102 105 107 105 104
143 144 133 129 125 123 130 129 131 126 125 122 116 121 122 120 112 113 111 105 101 107 107 108 109 112 113 119 113 108 107 108 108 111 110 104 106 107 109 106 107 109 106
140 140 138 132 128 128 126 135 131 131 129 131 123 123 120 113 108 106 104 101 105 106 107 111 111 113 115 113 111 112 113 112 112 116 117 112 104 115 112 109 107 107 108
136 136 139 133 128 130 128 130 132 129 131 135 127 124 122 116 111 106 103 99 101 105 106 109 108 115 119 117 117 116 113 112 117 125 119 116 119 117 116 114 109 108 107
133 133 131 130 130 130 134 135 132 133 134 133 128 119 121 122 115 108 105 105 100 104 104 106 115 120 126 125 123 120 113 108 123 137 132 135 128 131 132 129 122 119 115
133 133 130 127 128 132 133 133 133 136 137 139 140 124 123 125 121 111 107 104 104 105 116 115 119 121 125 129 129 129 131 114 130 151 149 143 147 145 141 133 132 139 133
133 135 135 129 125 126 128 130 135 136 142 146 151 142 132 129 126 118 113 114 105 107 119 126 126 131 137 134 130 121 126 158 185 167 169 156 150 147 146 151 159 155 153
145 139 138 136 133 131 128 133 134 143 142 155 160 162 153 144 137 123 120 114 115 120 122 135 142 146 148 144 137 115 74 165 171 167 173 170 169 172 177 168 156 158 155
146 144 141 140 137 136 133 133 139 148 156 163 174 178 178 169 149 138 128 122 122 123 127 137 155 157 161 159 151 131 49 143 177 173 184 191 189 204 204 205 197 183 179
150 155 153 151 144 146 142 140 141 164 175 178 176 170 172 172 164 149 151 147 139 133 132 140 166 177 178 185 179 167 325 274 205 215 227 226 209 218 228 222 211 210 204
159 162 162 159 160 154 155 157 162 174 180 174 171 174 185 182 178 178 176 174 172 162 152 161 173 195 197 200 199 217 264 317 217 247 250 254 240 227 231 237 227 220 220
169 161 170 166 167 169 168 169 175 175 179 183 185 188 196 192 195 206 211 218 209 224 211 196 207 210 209 211 205 220 257 283 287 287 274 260 249 244 236 242 240 233 236
176 174 178 176 179 176 181 178 183 183 189 189 196 203 210 212 213 224 223 231 233 231 235 226 222 220 218 221 220 228 251 273 284 295 295 277 252 248 250 246 246 246 242
185 184 183 184 185 184 186 186 192 196 199 202 207 213 219 219 224 236 244 245 244 238 249 243 228 228 223 225 226 239 248 275 297 304 294 280 261 253 255 254 251 250 248
190 193 192 190 192 193 195 198 200 203 210 214 216 223 228 234 236 243 250 248 247 246 245 252 250 240 240 233 229 234 253 280 294 301 307 272 268 259 259 264 261 255 256
196 199 197 197 199 199 203 207 209 211 217 223 226 230 234 239 246 252 257 262 261 260 263 260 258 254 252 257 241 243 263 277 284 297 299 287 277 270 255 260 268 267 268
201 203 203 202 204 206 210 214 219 221 224 231 237 238 243 249 253 255 266 269 266 261 258 257 257 262 270 272 274 264 269 277 273 272 278 280 279 280 270 257 261 266 268
202 206 207 205 207 210 214 219 224 229 232 236 239 240 245 249 253 256 257 261 264 255 256 261 262 268 271 277 285 272 271 275 269 271 267 272 275 272 273 258 258 265 268
209 209 211 211 214 214 218 221 226 233 237 240 240 240 241 244 246 255 257 262 265 261 262 265 267 267 275 280 287 285 279 274 278 269 266 267 270 271 266 265 264 261 266
214 215 217 218 222 222 225 230 233 238 240 243 246 249 252 254 255 254 258 262 263 263 262 263 265 266 270 275 283 289 284 278 277 272 268 269 266 267 268 265 264 263 261
218 216 222 221 224 224 224 229 237 239 242 244 245 247 254 257 256 257 257 260 261 260 263 264 265 264 266 270 278 283 288 286 278 273 270 266 266 269 269 264 265 266 266
220 219 220 227 230 228 229 232 233 242 248 251 252 251 255 256 252 252 252 256 262 262 262 262 260 256 257 261 254 263 288 285 276 268 263 261 265 267 265 269 265 268 269
220 225 226 227 231 232 235 235 239 243 251 255 259 250 249 252 251 252 255 256 259 262 261 262 261 253 250 254 251 228 258 243 318 263 267 293 291 276 271 270 275 277 277
220 222 229 234 235 238 238 235 239 243 243 255 262 267 264 254 255 254 257 259 259 259 258 260 261 259 252 243 246 245 241 252 221 293 277 277 279 277 286 284 279 280 289
222 224 228 230 232 234 235 238 239 245 255 261 262 268 273 271 263 265 262 260 262 260 259 262 259 256 254 247 245 243 241 243 247 244 279 276 275 278 277 280 284 285 286
221 225 228 231 237 238 239 241 243 249 258 264 270 276 282 284 281 276 274 271 269 268 268 268 270 264 257 254 246 248 239 231 217 219 237 264 261 279 282 284 282 280 284